Hourly Data Report for May 14, 2021

WIARTON A
ONTARIO
Current Station Operator: NAVCAN

44°44'39.000" N
81°06'31.000" W
221.90 m
6119499
71633
YVV

Download Data

Hourly Data (May 2021)
Hourly Data Report for May 14, 2021
TIME
LST
Temp Definition
°C
Dew Point Definition
°C
Rel Hum Definition
%
Precip. Amount Definition
mm

Wind Dir Definition
10's deg

Wind Spd Definition
km/h
Visibility Definition
km
Stn Press Definition
kPa
Hmdx Definition


Wind Chill Definition


Weather Definition


00:00 3.5 0.8 83   16 8 24.1 99.83     LegendNANA
01:00 1.3 -0.3 89   12 8 24.1 99.82     Clear
02:00 1.5 0.1 91   16 7 24.1 99.81     LegendNANA
03:00 1.2 -0.2 91   17 9 24.1 99.83     LegendNANA
04:00 1.1 0.1 93   17 6 24.1 99.83     Clear
05:00 0.1 -0.5 96   15 5 24.1 99.82     LegendNANA
06:00 2.8 1.4 91   13 7 24.1 99.86     LegendNANA
07:00 8.7 1.3 60   20 7 24.1 99.91     Clear
08:00 11.7 -0.6 42   21 8 24.1 99.92     LegendNANA
09:00 14.3 0.9 40   21 8 24.1 99.89     LegendNANA
10:00 16.4 0.4 34   29 9 24.1 99.86     Clear
11:00 17.9 -1.4 27   28 9 24.1 99.84     LegendNANA
12:00 18.9 -3.4 22   27 11 24.1 99.79     LegendNANA
13:00 19.0 -5.3 19   28 10 24.1 99.74     Mainly Clear
14:00 19.0 -2.2 24   28 13 24.1 99.71     LegendNANA
15:00 18.8 0.7 29   27 13 24.1 99.68     LegendNANA
16:00 18.2 0.8 31   26 14 24.1 99.63     Clear
17:00 17.8 1.8 34   26 9 24.1 99.60     LegendNANA
18:00 15.2 4.8 49   27 9 24.1 99.59     LegendNANA
19:00 12.4 3.5 54   26 12 24.1 99.61     Mainly Clear
20:00 10.1 3.7 64   22 5 24.1 99.62     LegendNANA
21:00 8.3 4.3 76   19 4 24.1 99.66     LegendNANA
22:00 6.2 3.5 83   15 5 24.1 99.65     Clear
23:00 5.6 4.3 91   14 7 24.1 99.63     LegendNANA

Notes on Data Quality.

Legend

  • E = Estimated
  • M = Missing
  • NA = Not Available*
  • [empty] = Indicates an unobserved value
Date modified: